Location: Arborea
(39.7744°N, 8.5819°E)
Time: 08:15:21
(UTC+00:00)

Daily predictions for brighter satellites

Satellite Brightness Start Highest point End
(mag) Time Altitude Azimuth Time Altitude Azimuth Time Altitude Azimuth
BREEZE-M DEB (TANK) 3.4 17:18:41 10° SW 17:22:07 65° SE 17:33:19 10° ENE
CZ-3 Stage 3 3.4 17:29:57 10° SW 17:33:37 37° SSE 17:45:47 10° E
COSMO-SKYMED 1 2.6 17:29:32 10° NNE 17:33:54 82° ESE 17:38:14 10° S
PSLV R/B 4.0 17:30:50 10° SE 17:34:22 43° ENE 17:37:52 10° N
Cosmos 2084 3.4 17:30:53 10° SSW 17:34:38 50° ESE 17:38:20 10° NE
NOSS 3-1 (C) 4.3 17:27:37 10° NW 17:35:23 90° ENE 17:44:28 10° SSE
Cosmos 676 Rocket 4.0 17:30:26 10° SSW 17:35:37 84° ESE 17:40:49 10° NNE
Tsikada Rocket 4.5 17:35:40 10° SSW 17:42:03 72° W 17:48:29 10° N
USA 267 3.3 17:36:18 10° SE 17:42:53 86° NE 17:49:28 10° NW
COBE Rocket 4.3 17:39:41 10° SE 17:44:17 40° ENE 17:48:47 10° N
Hubble Space Telescope 2.9 17:42:29 10° SW 17:45:06 17° S 17:47:44 10° SE
Cosmos 1733 3.5 17:46:01 10° SSE 17:49:34 41° E 17:53:06 10° NNE
Cosmos 1975 3.4 17:45:42 10° SSW 17:49:43 65° W 17:53:45 10° N
Cosmos 2227 Rocket 2.2 17:44:48 10° NNW 17:50:30 84° ENE 17:56:09 10° SSE
Okean 2 3.6 17:46:43 10° N 17:50:47 51° E 17:54:49 10° SSE
KORONAS-FOTON 3.8 17:47:31 10° N 17:51:25 84° E 17:55:15 10° S
CZ-4 R/B 2.4 17:47:55 10° SE 17:51:27 28° ENE 17:55:01 10° NNE
CZ-4B R/B 3.3 17:47:57 10° SSE 17:53:07 53° ENE 17:58:24 10° N
Spot 1 4.0 17:52:26 10° NNE 17:56:42 89° ESE 18:00:47 10° SSW
PAYLOAD B 4.2 17:51:33 10° SSE 17:57:04 85° ENE 18:02:36 10° NNW
Okean O Rocket 2.1 17:54:24 10° SE 17:58:27 39° ENE 18:02:31 10° N
Lacrosse 5 4.0 17:56:32 10° WNW 18:00:45 27° WSW 18:04:57 10° S
Cosmos 1707 3.8 17:57:31 10° NNW 18:01:12 47° W 18:04:50 10° SSW
Cosmos 1980 Rocket 2.2 17:57:11 10° S 18:02:45 65° ESE 18:08:19 10° NNE
Cosmos 468 Rocket 3.9 17:58:42 10° NNW 18:03:51 77° ENE 18:09:02 10° SSE
Cosmos 2297 Rocket 3.4 17:59:23 10° NW 18:04:47 46° WSW 18:10:08 10° S
Cosmos 2369 3.7 18:02:27 10° SSW 18:08:10 79° ESE 18:13:53 10° NNE
Cosmos 1809 Rocket 4.4 18:03:14 10° S 18:09:11 61° E 18:15:09 10° NNE
ASTEX 1 3.6 18:05:38 10° N 18:10:37 78° W 18:15:36 10° SSW
NOSS 2-2 (C) 4.4 18:06:37 10° NNW 18:11:58 84° ENE 18:19:35 10° SE
Cosmos 1626 2.9 18:10:06 10° NNW 18:13:38 52° W 18:17:08 10° S
Cosmos 2278 4.0 18:10:39 10° S 18:16:01 44° ESE 18:21:23 10° NE
USA 229 DEB 4.0 18:09:05 10° NNW 18:16:34 70° NE 18:24:28 10° SE
USA 229 4.0 18:09:11 10° NNW 18:16:39 69° NE 18:24:33 10° SE
YAOGAN 1 2.5 18:12:25 10° SSE 18:16:43 78° ENE 18:21:03 10° N
Cosmos 540 Rocket 3.3 18:13:36 10° NNW 18:18:43 75° ENE 18:23:48 10° SSE
SL-16 R/B 3.2 18:16:00 10° SSE 18:20:11 22° E 18:24:25 10° NE
Cosmos 1850 Rocket 3.9 18:15:15 10° SSW 18:20:26 81° ESE 18:25:42 10° NNE
Landsat 5 4.2 18:17:09 10° NNE 18:21:15 34° E 18:25:18 10° SSE
Cosmos 1674 Rocket 3.8 18:17:09 10° N 18:21:25 47° E 18:25:40 10° SSE
OBJECT-B 2.6 18:25:24 13° NNE 18:25:24 13° NNE 18:25:50 10° NNE
SL-4 R/B 4.1 18:21:11 10° NW 18:24:34 20° NNE 18:27:05 14° NE
Cosmos 841 Rocket 3.6 18:20:46 10° N 18:25:51 55° ENE 18:29:53 16° SE
Meteor 2-10 4.2 18:24:08 10° S 18:29:50 88° E 18:35:27 10° N
Cosmos 2279 Rocket 4.3 18:29:01 10° NNW 18:35:14 71° W 18:41:27 10° S
ISS -2.0 18:33:39 10° NNW 18:36:18 21° NNE 18:36:41 20° NNE
Cosmos 2221 Rocket 3.7 18:33:45 10° N 18:38:17 79° W 18:42:48 10° S
Cosmos 2180 Rocket 4.5 18:32:05 10° N 18:38:22 88° W 18:44:40 10° S
IRIDIUM 104 4.2 18:34:49 10° S 18:40:01 82° E 18:45:16 10° N
Resurs 01 Rocket 3.9 18:42:03 11° NE 18:42:03 11° NE 18:42:21 10° NE
HJ-1C 4.3 18:37:47 10° S 18:40:47 44° W 18:43:47 10° NNW
Cosmos 2219 4.3 18:35:32 10° NW 18:40:59 45° WSW 18:46:25 10° S
Meteor 1-15 Rocket 4.3 18:35:37 10° S 18:41:02 52° E 18:46:25 10° NNE
SL-14 R/B 3.3 18:38:34 10° N 18:42:31 78° W 18:46:30 10° S
Meteor 2-5 Rocket 4.2 18:40:25 10° N 18:45:28 35° ENE 18:46:14 34° E
USA 186 2.8 18:49:21 34° NNE 18:49:21 34° NNE 18:51:29 10° N
IRIDIUM 114 4.4 18:43:58 10° S 18:49:11 82° W 18:54:26 10° N
Cosmos 1378 Rocket 3.6 18:46:54 10° N 18:51:17 79° W 18:55:22 11° S
Cosmos 2263 Rocket 2.2 18:46:10 10° NNW 18:51:50 66° ENE 18:54:19 34° SE
IGS 5A 3.6 18:53:35 50° ENE 18:53:35 50° ENE 18:57:30 10° N
OAO 2 Rocket 3.8 18:50:05 10° SW 18:54:38 39° SSE 18:55:11 37° SSE
Cosmos 1766 3.7 18:54:13 10° SSW 18:58:04 61° W 19:01:57 10° N
Cosmos 2082 4.2 18:55:03 10° NNW 19:00:41 59° WSW 19:05:48 12° S
Okean-O 2.6 19:00:42 57° ENE 19:00:44 57° ENE 19:05:05 10° N
Cosmos 1726 3.6 19:00:03 10° SSW 19:03:25 36° WNW 19:06:49 10° N
CZ-2C R/B 2.8 19:02:01 10° WSW 19:04:00 19° SSW 19:04:00 19° SSW
Resurs 1-3 4.1 19:05:38 43° NE 19:05:38 43° NE 19:09:02 10° N
Cosmos 1814 Rocket 3.9 19:01:08 10° NNW 19:06:22 64° ENE 19:07:02 58° ESE
CSL-04 Debris 4.0 19:06:17 32° SSE 19:08:56 86° ENE 19:14:21 10° NNW
Cosmos 1627 Rocket 4.4 19:03:45 10° S 19:09:45 61° E 19:15:46 10° NNE
IRS-1C Rocket 3.9 19:12:09 59° SE 19:13:03 72° ENE 19:18:18 10° N
Cosmos 2195 Rocket 4.3 19:12:58 10° S 19:19:08 85° E 19:25:26 10° N
Cosmos 1428 Rocket 4.3 19:13:46 10° S 19:19:54 83° E 19:26:09 10° N
Hubble Space Telescope 3.3 19:23:24 10° SW 19:24:08 12° SSW 19:24:08 12° SSW
CZ-4 R/B 3.8 19:23:02 10° SSW 19:26:20 23° W 19:29:40 10° NW
CRYOSAT 2 4.4 19:29:50 74° WSW 19:30:03 76° W 19:34:58 10° N
Okean O Rocket 4.3 19:32:03 10° SW 19:34:55 17° W 19:37:50 10° NW
Cosmos 2285 Rocket 4.0 19:29:37 10° NNW 19:36:00 81° WSW 19:37:15 60° S
SJ-6B 4.4 19:37:27 32° WNW 19:37:27 32° WNW 19:39:57 10° NNW
Cosmos 2026 Rocket 3.9 19:32:51 22° S 19:36:57 82° W 19:43:03 10° N
BREEZE M DEB (TANK) 3.6 19:33:31 10° WSW 19:38:08 41° W 19:38:08 41° W
CSL-04 Rocket 4.1 19:38:43 43° SSW 19:40:05 56° W 19:45:22 10° NNW
Cosmos 968 Rocket 4.3 19:43:27 10° SW 19:48:32 50° WNW 19:53:38 10° N
Meteor 1-24 Rocket 4.3 19:56:10 10° NNW 20:00:31 49° WNW 20:00:31 49° WNW
SL-16 R/B 2.9 19:58:23 10° SW 20:03:53 50° WNW 20:09:23 10° NNE
SL-4 R/B 4.3 20:00:23 10° NW 20:02:29 25° NNW 20:02:29 25° NNW
Resurs 01 Rocket 4.2 20:19:37 16° NNW 20:19:37 16° NNW 20:20:33 10° NNW
Cosmos 1844 Rocket 4.2 20:13:12 10° NNW 20:16:00 30° NNW 20:16:00 30° NNW
